Regional Weather Roundup
Issued by NWS

Home | Current Version | Previous Version | Graphics & Text | Print | Product List | Glossary On
Versions: 1 2 3 4 5 6 7 8 9 10 11 12 13 14 15 16 17 18 19 20 21 22 23 24 25 26 27 28 29 30 31 32 33 34 35 36 37 38 39 40 41 42 43 44 45 46 47 48 49 50
000
ASUS43 KBIS 262110
RWRND

NORTH DAKOTA REGIONAL WEATHER ROUNDUP
NATIONAL WEATHER SERVICE BISMARCK ND
300 PM CST THU FEB 26 2015

NOTE: "FAIR" INDICATES FEW OR NO CLOUDS BELOW 12,000 FEET WITH NO
SIGNIFICANT WEATHER AND/OR OBSTRUCTIONS TO VISIBILITY.


NDZ001>003-009>011-017-262200-
NORTHWEST NORTH DAKOTA

CITY           SKY/WX    TMP DP  RH WIND       PRES   REMARKS
WILLISTON      SUNNY      9  -4  55 NW6       30.55F WCI  -1
MINOT          SUNNY      5  -6  60 W15       30.52F WCI -13
MINOT AFB      SUNNY      4  -3  72 NW16      30.52F WCI -15
$$

NDZ018>021-031>035-040>046-262200-
SOUTHWEST NORTH DAKOTA

CITY           SKY/WX    TMP DP  RH WIND       PRES   REMARKS
BISMARCK       SUNNY      9  -5  53 N15G21    30.54F WCI  -8
DICKINSON      SUNNY     10  -2  58 N10       30.44F WCI  -4
GARRISON         N/A      4  -4  69 NW17      30.51F WCI -16
HETTINGER ARPT SUNNY     10  -4  53 VRB6      30.45F WCI   0
$$

NDZ004>008-012>016-024-026-027-054-262200-
NORTHEAST NORTH DAKOTA

CITY           SKY/WX    TMP DP  RH WIND       PRES   REMARKS
GRAND FORKS    MOSUNNY    8  -4  58 NW12      30.53F WCI  -7
GRND FRKS AFB  SUNNY      8  -6  52 N9        30.52F WCI  -5
DEVILS LAKE    SUNNY    N/A N/A N/A MISG        N/A
$$

NDZ022-023-025-028>030-036>039-047>053-262200-
SOUTHEAST NORTH DAKOTA

CITY           SKY/WX    TMP DP  RH WIND       PRES   REMARKS
FARGO          SUNNY      7  -5  57 N14       30.54F WCI -10
JAMESTOWN      SUNNY      3  -9  57 NW17      30.50F WCI -17
$$




USA.gov is the U.S. government's official web portal to all federal, state and local government web resources and services.